Weather Roundup
Issued by NWS Springfield, MO

Home | Current Version | Previous Version | Text Only | Print | Product List | Glossary On
Versions: 1 2 3 4 5 6 7 8 9 10 11 12 13 14 15 16 17 18 19 20 21 22 23 24 25 26 27 28 29 30 31 32 33 34 35 36 37 38 39 40 41 42 43 44 45 46 47 48 49 50
000
NZUS99 KSGF 182207
HRRSGF

HOURLY WEATHER
NATIONAL WEATHER SERVICE SPRINGFIELD MO
500 PM CDT FRI APR 18 2014

......SGF CWA......

CITY           SKY/WX    TMP DP  RH WIND       PRES   REMARKS
SPRINGFIELD    MOSUNNY   72  38  29 CALM      30.18F
JOPLIN         SUNNY     71  40  32 VRB5      30.17F
WEST PLAINS    MOSUNNY   71  39  31 N3        30.18F
ROLLA          SUNNY     69  40  34 NE7       30.20F
OSAGE BEACH    SUNNY     70  37  30 W8        30.21F
BRANSON        MOSUNNY   72  37  28 SE9       30.19F

......SURROUNDING SGF CWA......

CITY           SKY/WX    TMP DP  RH WIND       PRES   REMARKS
CHANUTE        SUNNY     70  40  33 CALM      30.17F
PARSONS        SUNNY     72  39  30 S7        30.17F
COFFEYVILLE    SUNNY     73  40  30 VRB6      30.16F
EMPORIA        SUNNY     69  40  34 SE9       30.15F
GROVE OK       SUNNY     75  41  29 N5        30.16F
ROGERS AR      SUNNY     71  38  29 NE5       30.17F
SILOAM SPRINGS SUNNY     72  41  33 E6        30.17F
HARRISON AR    MOSUNNY   71  38  29 VRB6      30.18F
NEAR YELLVILLE PTSUNNY   73  39  29 E7        30.17F

......KANSAS AND MISSOURI......

CITY           SKY/WX    TMP DP  RH WIND       PRES   REMARKS
KANSAS CTY INT MOSUNNY   68  40  35 S9        30.18F
DOWNTOWN KC    SUNNY     69  40  34 S8        30.18F
COLUMBIA       SUNNY     69  40  34 CALM      30.21F
SEDALIA        SUNNY     69  43  38 CALM      30.21F
ST JOSEPH      SUNNY     68  37  32 SE13G21   30.19F
ST LOUIS       MOSUNNY   71  40  32 NW6       30.23F
SPIRIT OF STL  MOSUNNY   69  40  34 CALM      30.21F
KIRKSVILLE     SUNNY     66  35  31 SE7       30.24F
WICHITA        MOSUNNY   72  43  35 S16G24    30.13F
TOPEKA         MOSUNNY   70  42  36 SE12      30.17F
OLATHE         SUNNY     66  41  40 S8        30.18F

......TENNESSEE......

CITY           SKY/WX    TMP DP  RH WIND       PRES   REMARKS
MEMPHIS        PTSUNNY   73  50  44 E7        30.15F
NASHVILLE      CLOUDY    68  47  46 NE8       30.18F

......ARKANSAS.......

CITY           SKY/WX    TMP DP  RH WIND       PRES   REMARKS
FAYETTEVILLE   SUNNY     73  42  32 NE5       30.15F
FT SMITH       SUNNY     77  35  21 VRB3      30.14F
LITTLE ROCK    MOSUNNY   74  43  32 E10       30.16F

......OKLAHOMA.......

CITY           SKY/WX    TMP DP  RH WIND       PRES   REMARKS
TULSA          MOSUNNY   75  42  30 VRB3      30.13F
PONCA CITY     SUNNY     73  38  27 S6        30.13F
MCALESTER      SUNNY     76  41  28 N7        30.14F
OKLAHOMA CITY  MOSUNNY   74  41  30 SE9       30.14F

......IOWA............

CITY           SKY/WX    TMP DP  RH WIND       PRES   REMARKS
DES MOINES     MOSUNNY   65  31  28 S14G21    30.21F
QUAD CITIES    SUNNY     63  28  26 N6        30.27F

......ILLINOIS........

CITY           SKY/WX    TMP DP  RH WIND       PRES   REMARKS
QUINCY         SUNNY     66  33  29 CALM      30.23F
CHICAGO        MOSUNNY   49  31  49 NE10      30.33S



USA.gov is the U.S. government's official web portal to all federal, state and local government web resources and services.